Date String (YYYY-MM-DD hh:mm:ss) UTC,Instrument flags,Ambient pressure (hPa),Sample flow (lpm),Bypass flow (lpm),Sample temperature (°C),Ambient temperature (°C),ASC tube jacket temperature (°C),LED temperature (°C),Box temperature (°C),Sample RH (%),Span deviation,Mass concentration (μg/m³),Mass concentration (μg/m³),Mass concentration (μg/m³)
DateTimeUTC,F1_M11,P_M11,Q1_M11,Q2_M11,T1_M11,T2_M11,T3_M11,T4_M11,T5_M11,U1_M11,ZSPAN_M11,X0_M11,X2_M11,X1_M11
2022-08-30 23:00:00,,0831.5,5.00,0.00,29.3,27.6,00.0,37.9,31.1,21.6,0000.0,0019.35,0006.80,0005.43
2022-08-30 23:01:00,,0831.5,5.00,0.00,29.4,27.9,00.0,37.9,31.2,21.8,0000.0,0019.80,0006.81,0005.38
2022-08-30 23:02:00,,0831.5,5.01,0.00,29.4,28.2,00.0,37.9,31.3,21.9,0000.0,0020.31,0006.77,0005.36
2022-08-30 23:03:00,,0831.5,4.98,0.00,29.5,28.4,00.0,38.0,31.4,21.8,0000.0,0020.11,0006.74,0005.33
2022-08-30 23:04:00,,0831.5,5.00,0.00,29.5,28.1,00.0,38.0,31.4,21.6,0000.0,0019.82,0006.67,0005.29
2022-08-30 23:05:00,,0831.5,5.01,0.00,29.5,27.0,00.0,38.0,31.3,20.6,0000.0,0018.90,0006.61,0005.25
2022-08-30 23:06:00,,0831.5,5.00,0.00,29.4,26.7,00.0,38.0,31.2,20.2,0000.0,0018.64,0006.58,0005.21
2022-08-30 23:07:00,,0831.5,5.00,0.00,29.4,26.9,00.0,38.0,31.2,20.4,0000.0,0019.02,0006.53,0005.16
2022-08-30 23:08:00,,0831.5,5.00,0.00,29.4,27.2,00.0,37.9,31.1,20.2,0000.0,0019.00,0006.53,0005.12
2022-08-30 23:09:00,,0831.5,5.01,0.00,29.4,27.5,00.0,37.9,31.1,20.1,0000.0,0018.28,0006.40,0005.06
2022-08-30 23:10:00,,0831.5,5.01,0.00,29.4,27.8,00.0,37.9,31.2,20.6,0000.0,0017.80,0006.28,0005.01
2022-08-30 23:11:00,,0831.5,4.99,0.00,29.4,28.1,00.0,38.0,31.3,20.9,0000.0,0017.08,0006.19,0004.99
2022-08-30 23:12:00,,0831.5,5.00,0.00,29.5,28.3,00.0,38.0,31.4,20.7,0000.0,0016.82,0006.15,0004.99
2022-08-30 23:13:00,,0831.5,5.00,0.00,29.5,28.1,00.0,38.0,31.4,20.9,0000.0,0017.00,0006.13,0004.98
2022-08-30 23:14:00,,0831.5,5.00,0.00,29.5,27.0,00.0,38.0,31.3,20.1,0000.0,0017.06,0006.12,0004.97
2022-08-30 23:15:00,,0831.5,5.00,0.00,29.4,26.6,00.0,38.0,31.2,19.5,0000.0,0016.77,0006.08,0004.94
2022-08-30 23:16:00,,0831.5,5.00,0.00,29.4,26.9,00.0,38.0,31.2,19.5,0000.0,0017.27,0006.07,0004.92
2022-08-30 23:17:00,,0831.4,5.01,0.00,29.4,27.1,00.0,38.0,31.1,19.5,0000.0,0017.37,0006.02,0004.90
2022-08-30 23:18:00,,0831.5,5.00,0.00,29.4,27.5,00.0,37.9,31.1,19.4,0000.0,0017.42,0005.97,0004.87
2022-08-30 23:19:00,,0831.5,5.00,0.00,29.4,27.8,00.0,38.0,31.2,19.5,0000.0,0016.92,0005.90,0004.84
2022-08-30 23:20:00,,0831.5,5.01,0.00,29.4,28.0,00.0,38.0,31.3,19.8,0000.0,0017.52,0005.93,0004.83
2022-08-30 23:21:00,,0831.4,5.01,0.00,29.5,28.3,00.0,38.0,31.4,19.4,0000.0,0019.40,0005.91,0004.81
2022-08-30 23:22:00,,0831.5,4.99,0.00,29.5,28.1,00.0,38.0,31.4,19.4,0000.0,0018.99,0005.89,0004.79
2022-08-30 23:23:00,,0831.4,5.00,0.00,29.5,27.0,00.0,38.0,31.3,19.1,0000.0,0017.94,0005.81,0004.75
2022-08-30 23:24:00,,0831.4,5.00,0.00,29.4,26.5,00.0,38.0,31.2,19.0,0000.0,0018.09,0005.75,0004.70
2022-08-30 23:25:00,,0831.4,5.01,0.00,29.4,26.8,00.0,38.0,31.2,19.1,0000.0,0017.39,0005.69,0004.67
2022-08-30 23:26:00,,0831.4,4.99,0.00,29.4,27.1,00.0,37.9,31.1,19.3,0000.0,0017.91,0005.66,0004.63
2022-08-30 23:27:00,,0831.4,5.01,0.00,29.4,27.4,00.0,37.9,31.1,19.5,0000.0,0017.59,0005.65,0004.61
2022-08-30 23:28:00,,0831.4,5.00,0.00,29.4,27.7,00.0,37.9,31.2,19.9,0000.0,0018.01,0005.68,0004.60
2022-08-30 23:29:00,,0831.4,5.01,0.00,29.4,28.0,00.0,38.0,31.3,20.1,0000.0,0018.17,0005.74,0004.61
2022-08-30 23:30:00,,0831.4,4.98,0.00,29.4,28.2,00.0,38.0,31.4,20.0,0000.0,0018.99,0005.79,0004.61
2022-08-30 23:31:00,,0831.4,5.00,0.00,29.5,28.2,00.0,38.0,31.4,20.0,0000.0,0018.91,0005.77,0004.60
2022-08-30 23:32:00,,0831.4,5.01,0.00,29.5,27.1,00.0,38.0,31.3,20.0,0000.0,0017.62,0005.74,0004.60
2022-08-30 23:33:00,,0831.4,5.00,0.00,29.4,26.5,00.0,38.0,31.2,20.1,0000.0,0018.53,0005.77,0004.61
2022-08-30 23:34:00,,0831.4,5.00,0.00,29.4,26.8,00.0,38.0,31.2,20.3,0000.0,0019.05,0005.80,0004.61
2022-08-30 23:35:00,,0831.4,5.01,0.00,29.3,27.0,00.0,37.9,31.1,20.5,0000.0,0019.35,0005.83,0004.62
2022-08-30 23:36:00,,0831.4,5.00,0.00,29.3,27.4,00.0,37.9,31.1,20.6,0000.0,0019.75,0005.92,0004.65
2022-08-30 23:37:00,,0831.4,5.00,0.00,29.3,27.7,00.0,37.9,31.2,20.4,0000.0,0019.60,0005.96,0004.68
2022-08-30 23:38:00,,0831.4,5.01,0.00,29.4,28.0,00.0,37.9,31.3,20.1,0000.0,0019.84,0005.98,0004.69
2022-08-30 23:39:00,,0831.5,4.99,0.00,29.4,28.2,00.0,38.0,31.3,20.1,0000.0,0019.66,0005.96,0004.70
2022-08-30 23:40:00,,0831.4,4.99,0.00,29.5,28.2,00.0,38.0,31.4,20.3,0000.0,0019.63,0005.94,0004.72
2022-08-30 23:41:00,,0831.4,5.01,0.00,29.5,27.1,00.0,38.0,31.3,20.7,0000.0,0019.09,0005.92,0004.74
2022-08-30 23:42:00,,0831.5,4.99,0.00,29.4,26.5,00.0,38.0,31.2,21.1,0000.0,0018.71,0006.01,0004.78
2022-08-30 23:43:00,,0831.4,5.01,0.00,29.4,26.7,00.0,38.0,31.2,21.3,0000.0,0018.91,0006.09,0004.81
2022-08-30 23:44:00,,0831.4,5.00,0.00,29.3,27.0,00.0,37.9,31.1,21.3,0000.0,0017.83,0006.08,0004.84
2022-08-30 23:45:00,,0831.4,5.00,0.00,29.3,27.4,00.0,37.9,31.1,21.1,0000.0,0018.67,0006.11,0004.86
2022-08-30 23:46:00,,0831.4,5.00,0.00,29.3,27.7,00.0,37.9,31.1,20.9,0000.0,0019.09,0006.12,0004.88
2022-08-30 23:47:00,,0831.4,5.00,0.00,29.4,27.9,00.0,37.9,31.2,20.5,0000.0,0020.50,0006.13,0004.88
2022-08-30 23:48:00,,0831.4,5.00,0.00,29.4,28.2,00.0,38.0,31.3,20.0,0000.0,0019.91,0006.12,0004.89
2022-08-30 23:49:00,,0831.5,5.00,0.00,29.5,28.2,00.0,38.0,31.4,20.1,0000.0,0019.87,0006.16,0004.90
2022-08-30 23:50:00,,0831.4,4.99,0.00,29.5,27.2,00.0,38.0,31.3,20.2,0000.0,0020.03,0006.21,0004.91
2022-08-30 23:51:00,,0831.4,5.01,0.00,29.4,26.5,00.0,38.0,31.2,20.4,0000.0,0019.77,0006.19,0004.89
2022-08-30 23:52:00,,0831.4,4.99,0.00,29.4,26.7,00.0,37.9,31.2,20.4,0000.0,0020.83,0006.16,0004.87
2022-08-30 23:53:00,,0831.5,5.00,0.00,29.3,27.0,00.0,37.9,31.0,20.3,0000.0,0021.25,0006.09,0004.85
2022-08-30 23:54:00,,0831.4,5.01,0.00,29.3,27.3,00.0,37.9,31.0,20.4,0000.0,0020.95,0006.07,0004.84
2022-08-30 23:55:00,,0831.4,5.00,0.00,29.3,27.6,00.0,37.9,31.1,20.3,0000.0,0021.04,0006.07,0004.83
2022-08-30 23:56:00,,0831.4,5.01,0.00,29.4,27.9,00.0,37.9,31.2,20.5,0000.0,0019.99,0006.05,0004.83
2022-08-30 23:57:00,,0831.4,4.99,0.00,29.4,28.1,00.0,37.9,31.3,20.6,0000.0,0019.02,0006.09,0004.82
2022-08-30 23:58:00,,0831.4,5.01,0.00,29.4,28.4,00.0,38.0,31.4,20.4,0000.0,0017.49,0006.13,0004.83
2022-08-30 23:59:00,,0831.4,5.00,0.00,29.5,28.0,00.0,38.0,31.4,20.2,0000.0,0017.41,0006.15,0004.85
